Regional Weather Roundup
Issued by NWS Raleigh/Durham, NC

Home | Current Version | Previous Version | Text Only | Print | Product List | Glossary On
Versions: 1 2 3 4 5 6 7 8 9 10 11 12 13 14 15 16 17 18 19 20 21 22 23 24 25 26 27 28 29 30 31 32 33 34 35 36 37 38 39 40 41 42 43 44 45 46 47 48 49 50
000
ASUS42 KRAH 061310
RWRRAH
NORTH CAROLINA WEATHER ROUNDUP
NATIONAL WEATHER SERVICE RALEIGH NC
900 AM EDT WED MAY 06 2015

NOTE: "FAIR" INDICATES FEW OR NO CLOUDS BELOW 12,000 FEET WITH NO
SIGNIFICANT WEATHER AND/OR OBSTRUCTIONS TO VISIBILITY.

NCZ001-053-055-056-065-067-061400-
WESTERN NORTH CAROLINA

CITY           SKY/WX    TMP DP  RH WIND       PRES   REMARKS
ASHEVILLE      SUNNY     60  51  72 N6        30.29F
JEFFERSON      SUNNY     60  52  75 CALM      30.32R
MORGANTON      SUNNY     61  58  92 CALM      30.30S
HICKORY        SUNNY     63  57  81 NW3       30.25S
RUTHERFORDTON  SUNNY     64  57  79 CALM      30.26S
MOUNT AIRY     SUNNY     65  59  80 CALM      30.27S
BOONE          SUNNY     58  51  77 CALM      30.32F
$$

NCZ021-022-025-041-071-084-088-061400-
CENTRAL NORTH CAROLINA

CITY           SKY/WX    TMP DP  RH WIND       PRES   REMARKS
CHARLOTTE      MOSUNNY   68  54  60 SW3       30.25F
GREENSBORO     MOSUNNY   67  54  63 W8        30.24S
WINSTON-SALEM  SUNNY     66  54  65 VRB5      30.26S
RALEIGH-DURHAM PTSUNNY   66  58  75 SW3       30.25F
FORT BRAGG     PTSUNNY   64  57  76 CALM      30.23F
FAYETTEVILLE   PTSUNNY   64  56  75 NE5       30.24S
BURLINGTON     SUNNY     65  56  72 SW3       30.25S
LAURINBURG     MOSUNNY   62  55  77 NE3       30.24F
$$

NCZ011-015-027-028-043-044-047-080-103-061400-
NORTHEASTERN NORTH CAROLINA

CITY           SKY/WX    TMP DP  RH WIND       PRES   REMARKS
ROCKY MT-WILSO MOSUNNY   66  57  72 SE3       30.26S
GREENVILLE     MOSUNNY   66  59  77 CALM      30.26F
WASHINGTON       N/A     64  58  82 CALM      30.26F
ELIZABETH CITY SUNNY     69  59  70 CALM      30.27S
MANTEO         PTSUNNY   69  55  61 CALM      30.27S
CAPE HATTERAS  PTSUNNY   68  54  60 SE5       30.26R
$$

NCZ078-087-090-091-093-098-101-061400-
SOUTHEASTERN NORTH CAROLINA

CITY           SKY/WX    TMP DP  RH WIND       PRES   REMARKS
LUMBERTON      PTSUNNY   66  58  75 E3        30.23S
GOLDSBORO      PTSUNNY   65  58  79 CALM      30.23S
KINSTON        PTSUNNY   64  59  82 CALM      30.26S
KENANSVILLE    PTSUNNY   65  58  78 CALM      30.26S
NEW BERN       PTSUNNY   66  58  75 E3        30.27R
CHERRY POINT   CLOUDY    69  60  73 NE5       30.26R
BEAUFORT       CLOUDY    70  60  70 NE6       30.24S
JACKSONVILLE   PTSUNNY   65  58  78 E3        30.24S
WILMINGTON     CLOUDY    68  62  81 NE7       30.23S
$$



USA.gov is the U.S. government's official web portal to all federal, state and local government web resources and services.